TimeJST,TemperatureF,Dew PointF,Humidity,Sea Level PressureIn,VisibilityMPH,Wind Direction,Wind SpeedMPH,Gust SpeedMPH,PrecipitationIn,Events,Conditions,WindDirDegrees,DateUTC
12:00 AM,72,60,58,30.13,,ESE,9.2,,,,,110,2013-11-23 15:00:00
3:00 AM,71,60,61,30.09,12,ESE,9.2,,,,Scattered Clouds,110,2013-11-23 18:00:00
6:00 AM,70,60,63,30.09,12,ESE,8.1,,,,Partly Cloudy,110,2013-11-23 21:00:00
6:30 AM,69.8,60.8,73,30.06,6.2,East,6.9,-,N/A,,Partly Cloudy,100,2013-11-23 21:30:00
7:00 AM,69.8,60.8,73,30.06,6.2,ESE,8.1,-,N/A,,Partly Cloudy,110,2013-11-23 22:00:00
8:00 AM,71.6,62.6,73,30.06,6.2,ESE,8.1,-,N/A,,Partly Cloudy,110,2013-11-23 23:00:00
9:00 AM,74,63,61,30.07,9,SE,12.7,,,,Scattered Clouds,130,2013-11-24 00:00:00
9:00 AM,75.2,62.6,65,30.04,6.2,ESE,16.1,-,N/A,,Partly Cloudy,120,2013-11-24 00:00:00
10:00 AM,75.2,64.4,69,30.04,6.2,ESE,16.1,-,N/A,,Partly Cloudy,120,2013-11-24 01:00:00
11:00 AM,77.0,62.6,61,30.04,6.2,SE,15.0,-,N/A,,Partly Cloudy,130,2013-11-24 02:00:00
12:00 PM,78,64,54,30.02,9,SE,12.7,,,,Partly Cloudy,130,2013-11-24 03:00:00
12:00 PM,78.8,64.4,61,30.01,6.2,SE,16.1,-,N/A,,Partly Cloudy,130,2013-11-24 03:00:00
1:00 PM,78.8,64.4,61,29.95,6.2,SE,15.0,-,N/A,,Scattered Clouds,130,2013-11-24 04:00:00
2:00 PM,77.0,66.2,69,29.95,6.2,SE,16.1,-,N/A,,Scattered Clouds,130,2013-11-24 05:00:00
3:00 PM,78,67,61,29.94,9,SSE,12.7,,,,Mostly Cloudy,160,2013-11-24 06:00:00
3:00 PM,78.8,66.2,65,29.92,6.2,SE,16.1,-,N/A,,Scattered Clouds,130,2013-11-24 06:00:00
4:00 PM,77.0,68.0,74,29.92,6.2,SSE,13.8,-,N/A,,Partly Cloudy,150,2013-11-24 07:00:00
5:00 PM,77.0,68.0,74,29.92,6.2,SSE,13.8,-,N/A,,Partly Cloudy,150,2013-11-24 08:00:00
6:00 PM,76,69,72,29.92,6,SSE,10.4,,,,Mist,160,2013-11-24 09:00:00
6:00 PM,75.2,68.0,78,29.89,6.2,SSE,12.7,-,N/A,,Partly Cloudy,150,2013-11-24 09:00:00
7:00 PM,75.2,68.0,78,29.89,6.2,SSE,11.5,-,N/A,,Partly Cloudy,150,2013-11-24 10:00:00
8:00 PM,75.2,68.0,78,29.92,6.2,SSE,13.8,-,N/A,,Partly Cloudy,160,2013-11-24 11:00:00
9:00 PM,76,68,69,29.92,6,South,15.0,,,,Partly Cloudy,170,2013-11-24 12:00:00